Regional Weather Roundup
Issued by NWS Jackson, KY

Home | Current Version | Previous Version | Text Only | Print | Product List | Glossary On
Versions: 1 2 3 4 5 6 7 8 9 10 11 12 13 14 15 16 17 18 19 20 21 22 23 24 25 26 27
000
ASUS43 KJKL 271910
RWRJKL

EAST KENTUCKY HOURLY WEATHER ROUNDUP
NATIONAL WEATHER SERVICE JACKSON KY
300 PM EDT SAT AUG 27 2016

NOTE: "FAIR" INDICATES FEW OR NO CLOUDS BELOW 12,000 FEET WITH
NO SIGNIFICANT WEATHER AND/OR OBSTRUCTIONS TO VISIBILITY.

* THESE REPORTS ARE NOT UNDER NWS QUALITY CONTROL AND MAY NOT
  REPORT WEATHER SUCH AS PRECIPITATION AND FOG.

KYZ079-080-083-085-087-088-110-112-115-119-120-272000
...EASTERN KENTUCKY...

CITY           SKY/WX    TMP DP  RH WIND       PRES   REMARKS
JACKSON        MOSUNNY   91  72  53 CALM      30.14F HX  98
LONDON         SUNNY     92  65  40 VRB3      30.12F HX  94
SOMERSET*      MOSUNNY   91  68  46 W5        30.11F HX  95
MONTICELLO*    SUNNY    N/A N/A N/A W15       30.11F
WILLIAMSBURG*  CLEAR     91  73  55 N3        30.12F HX 100
MIDDLESBORO*   SUNNY     92  71  50 SE5       30.12F HX  97
HARLAN APT*    PTCLDY    93  63  36 SE3       30.15F HX  94
PIKE CO APT*     N/A     91  69  48 E3        30.14F HX  95
BIG SANDY APT* CLEAR     92  71  50 CALM      30.13F HX  98
MOREHEAD APT*  CLEAR     91  70  49 VRB6      30.13S HX  97
ASHLAND*       MOSUNNY   95  73  49 SW7       30.07F HX 105
$$

KYZ035-036-041-042-044-050-067-078-099-272000
...CENTRAL KENTUCKY...

CITY           SKY/WX    TMP DP  RH WIND       PRES   REMARKS
MT STERLING*   MOSUNNY   91  72  52 S5        30.13S HX  98
FLEMING/MASON* MOSUNNY   95  70  45 S5        30.12S HX 101
DANVILLE*      MOSUNNY   93  73  52 S5        30.12F HX 102
LEXINGTON      SUNNY     92  71  50 SW6       30.10F HX  98
FRANKFORT      MOSUNNY   93  71  48 SW8       30.08F HX 100
LOUISVILLE     MOSUNNY   87  71  58 NE10      30.09F HX  93
GLASGOW*       SUNNY     90  75  61 CALM      30.08F HX 100
BOWLING GREEN  PTSUNNY   91  73  55 S3        30.08F HX  99
$$

KYZ091>093-OHZ055-061-077-WVZ005-015-034-035-042-272000
...SOUTHERN OHIO/WEST VIRGINIA...

CITY           SKY/WX    TMP DP  RH WIND       PRES   REMARKS
COVINGTON      TSTM      74  72  93 N13       30.15R FOG
COLUMBUS       MOSUNNY   88  71  57 S8        30.10S HX  94
DAYTON         PTSUNNY   86  70  58 W10       30.12F HX  90
WILMINGTON     MOSUNNY   90  73  57 S8        30.11S HX  98
HUNTINGTON     MOSUNNY   94  70  45 VRB7      30.10F HX 100
CHARLESTON     MOSUNNY   93  69  45 SE7       30.11F HX  98
PINEVILLE*     MOSUNNY   92  59  33 MISG      30.22F HX  91
BECKLEY        SUNNY     86  66  51 SE12      30.23F
BLUEFIELD      MOSUNNY   80  65  59 E3        30.26F
LOGAN CO APT*    N/A     90  70  51 CALM      30.15F HX  95
$$

VAZ002-007-008-TNZ017-027-036-066-071-272000
...SOUTHWEST VIRGINIA/EAST TENNESSEE...

CITY           SKY/WX    TMP DP  RH WIND       PRES   REMARKS
WISE*          SUNNY     88  48  25 S3        30.24F
JONESVILLE*      N/A     93  68  43 CALM      30.16F HX  97
ABINGDON*      CLOUDY    90  65  42 CALM      30.19F HX  92
BRISTOL        MOSUNNY   90  67  46 CALM      30.15F HX  93
MORRISTOWN*    CLEAR     93  68  43 VRB3      30.11F HX  97
SEVIERVILLE*     N/A     93  66  40 VRB5      30.09F HX  96
KNOXVILLE      MOSUNNY   95  67  39 N9        30.08F HX  99
OAK RIDGE      MOSUNNY   94  68  42 VRB6      30.12F HX  98
CROSSVILLE     MOSUNNY   88  67  49 SE8       30.17F HX  91
NASHVILLE      PTSUNNY   96  70  42 N6        30.06F HX 102
$$

...KEY TO REMARKS...
VSB - VISIBILITY IN MILES
WCI - WIND CHILL INDEX
HX  - HEAT INDEX

$$




USA.gov is the U.S. government's official web portal to all federal, state and local government web resources and services.